QPF
0.06 0.04 0.03 0.04 0.06 0.07 0.08 0.08 0.04 0.03 0.02 0.01 0.00 0.01 0.01 0.01 0.00 0.00 0.00 0.01 0.01 0.03 0.05 0.04 0.03 0.03 0.02 0.02 0.02 0.02 0.01 0.01 0.01 0.01 0.01 0.01 0.01 0.01 0.01 0.01 0.01 0.01 0.01
0.08 0.05 0.03 0.03 0.04 0.05 0.06 0.08 0.07 0.05 0.03 0.01 0.00 0.00 0.00 0.01 0.01 0.00 0.00 0.00 0.00 0.01 0.03 0.04 0.03 0.03 0.02 0.02 0.02 0.02 0.02 0.01 0.01 0.01 0.01 0.01 0.01 0.01 0.01 0.00 0.00 0.00 0.00
0.12 0.09 0.05 0.03 0.03 0.04 0.04 0.05 0.06 0.06 0.04 0.03 0.01 0.00 0.00 0.01 0.01 0.01 0.01 0.01 0.01 0.01 0.01 0.03 0.04 0.03 0.01 0.01 0.02 0.02 0.02 0.02 0.02 0.01 0.01 0.01 0.01 0.01 0.01 0.00 0.00 0.00 0.00
0.14 0.12 0.09 0.06 0.03 0.03 0.03 0.03 0.03 0.04 0.04 0.03 0.02 0.01 0.00 0.00 0.01 0.01 0.01 0.01 0.01 0.01 0.01 0.02 0.03 0.03 0.01 0.01 0.01 0.02 0.03 0.04 0.03 0.02 0.01 0.01 0.01 0.01 0.02 0.01 0.00 0.00 0.00
0.13 0.11 0.09 0.07 0.07 0.04 0.03 0.02 0.02 0.03 0.03 0.03 0.03 0.02 0.01 0.01 0.00 0.01 0.01 0.01 0.01 0.02 0.01 0.01 0.01 0.02 0.02 0.01 0.01 0.01 0.02 0.04 0.04 0.03 0.02 0.01 0.01 0.01 0.02 0.02 0.01 0.00 0.00
0.14 0.12 0.09 0.07 0.07 0.08 0.06 0.03 0.03 0.03 0.03 0.03 0.03 0.02 0.01 0.01 0.01 0.01 0.01 0.01 0.01 0.01 0.02 0.01 0.01 0.01 0.01 0.01 0.01 0.01 0.01 0.03 0.04 0.05 0.04 0.02 0.02 0.01 0.02 0.03 0.03 0.01 0.00
0.12 0.13 0.12 0.09 0.07 0.06 0.06 0.06 0.04 0.04 0.03 0.03 0.03 0.02 0.01 0.01 0.01 0.01 0.01 0.01 0.01 0.02 0.02 0.02 0.01 0.01 0.01 0.01 0.01 0.00 0.01 0.02 0.03 0.04 0.05 0.04 0.03 0.02 0.02 0.03 0.04 0.04 0.01
0.10 0.09 0.10 0.08 0.05 0.04 0.04 0.04 0.04 0.04 0.04 0.03 0.03 0.03 0.01 0.01 0.01 0.00 0.01 0.01 0.01 0.01 0.01 0.02 0.02 0.01 0.01 0.01 0.01 0.00 0.00 0.01 0.01 0.02 0.03 0.03 0.03 0.02 0.02 0.02 0.02 0.04 0.04
0.09 0.07 0.06 0.05 0.04 0.03 0.02 0.02 0.03 0.03 0.03 0.03 0.03 0.02 0.01 0.01 0.01 0.00 0.00 0.01 0.01 0.02 0.02 0.02 0.02 0.02 0.01 0.01 0.01 0.00 0.00 0.00 0.01 0.01 0.02 0.03 0.02 0.02 0.02 0.03 0.02 0.02 0.03
0.08 0.07 0.05 0.04 0.02 0.02 0.02 0.01 0.01 0.02 0.03 0.03 0.02 0.02 0.01 0.01 0.01 0.00 0.00 0.01 0.01 0.02 0.02 0.02 0.02 0.02 0.02 0.01 0.01 0.00 0.00 0.00 0.00 0.01 0.01 0.02 0.02 0.02 0.02 0.02 0.02 0.03 0.03
0.10 0.08 0.06 0.05 0.04 0.03 0.02 0.01 0.00 0.01 0.01 0.02 0.02 0.02 0.01 0.01 0.01 0.01 0.00 0.00 0.01 0.01 0.03 0.03 0.02 0.02 0.02 0.02 0.01 0.01 0.00 0.00 0.00 0.00 0.01 0.01 0.02 0.02 0.03 0.03 0.02 0.02 0.03
0.10 0.07 0.05 0.05 0.04 0.04 0.03 0.01 0.00 0.01 0.01 0.02 0.02 0.02 0.02 0.01 0.01 0.01 0.01 0.00 0.00 0.00 0.02 0.04 0.03 0.02 0.02 0.02 0.01 0.01 0.01 0.01 0.00 0.01 0.01 0.02 0.02 0.02 0.03 0.04 0.03 0.03 0.03
0.08 0.06 0.05 0.04 0.03 0.03 0.03 0.02 0.01 0.01 0.01 0.01 0.02 0.03 0.03 0.02 0.02 0.01 0.01 0.01 0.00 0.00 0.01 0.03 0.04 0.03 0.02 0.01 0.01 0.02 0.02 0.02 0.01 0.01 0.01 0.02 0.02 0.02 0.04 0.05 0.04 0.04 0.04
0.05 0.03 0.02 0.01 0.01 0.01 0.02 0.02 0.01 0.01 0.01 0.01 0.02 0.02 0.03 0.03 0.02 0.02 0.01 0.01 0.01 0.00 0.00 0.01 0.04 0.04 0.02 0.02 0.01 0.02 0.02 0.02 0.02 0.01 0.01 0.02 0.01 0.02 0.02 0.04 0.05 0.05 0.05
0.03 0.02 0.01 0.01 0.01 0.01 0.01 0.01 0.01 0.01 0.00 0.00 0.01 0.02 0.02 0.03 0.03 0.03 0.02 0.02 0.02 0.01 0.01 0.00 0.02 0.04 0.04 0.03 0.03 0.02 0.02 0.02 0.03 0.02 0.01 0.01 0.02 0.02 0.02 0.03 0.03 0.03 0.04
0.02 0.01 0.01 0.01 0.01 0.01 0.01 0.01 0.01 0.01 0.00 0.00 0.00 0.01 0.01 0.02 0.02 0.03 0.03 0.03 0.03 0.03 0.03 0.02 0.01 0.02 0.04 0.05 0.05 0.03 0.02 0.02 0.03 0.04 0.03 0.03 0.03 0.03 0.03 0.04 0.04 0.04 0.04
0.02 0.01 0.01 0.01 0.01 0.01 0.00 0.00 0.00 0.00 0.00 0.00 0.00 0.00 0.01 0.01 0.01 0.02 0.02 0.02 0.03 0.03 0.03 0.02 0.01 0.01 0.02 0.04 0.05 0.05 0.04 0.02 0.02 0.03 0.03 0.03 0.03 0.03 0.04 0.04 0.04 0.04 0.04
0.02 0.01 0.01 0.01 0.01 0.01 0.01 0.01 0.00 0.00 0.00 0.00 0.00 0.00 0.00 0.00 0.01 0.01 0.01 0.01 0.02 0.02 0.02 0.01 0.01 0.01 0.01 0.02 0.04 0.06 0.06 0.03 0.02 0.02 0.03 0.02 0.02 0.02 0.02 0.03 0.03 0.04 0.04
0.02 0.02 0.01 0.01 0.01 0.01 0.01 0.01 0.01 0.01 0.01 0.01 0.01 0.01 0.01 0.00 0.00 0.01 0.01 0.01 0.01 0.01 0.01 0.01 0.01 0.01 0.01 0.01 0.03 0.05 0.07 0.06 0.04 0.03 0.03 0.03 0.03 0.02 0.02 0.02 0.02 0.03 0.03
0.02 0.02 0.01 0.01 0.02 0.01 0.01 0.02 0.02 0.01 0.01 0.01 0.01 0.01 0.01 0.01 0.01 0.01 0.01 0.01 0.01 0.01 0.01 0.01 0.01 0.01 0.01 0.00 0.01 0.03 0.05 0.07 0.05 0.04 0.03 0.03 0.03 0.03 0.03 0.02 0.02 0.01 0.01
0.02 0.02 0.01 0.02 0.02 0.02 0.02 0.02 0.02 0.02 0.01 0.01 0.01 0.01 0.01 0.01 0.01 0.01 0.01 0.01 0.01 0.01 0.01 0.01 0.01 0.01 0.01 0.01 0.01 0.01 0.02 0.04 0.05 0.04 0.04 0.03 0.03 0.03 0.02 0.02 0.03 0.02 0.02
0.02 0.02 0.02 0.02 0.02 0.02 0.02 0.02 0.02 0.02 0.02 0.01 0.01 0.01 0.01 0.01 0.01 0.01 0.01 0.01 0.01 0.01 0.01 0.01 0.01 0.01 0.01 0.01 0.01 0.01 0.02 0.02 0.03 0.03 0.03 0.03 0.03 0.03 0.02 0.02 0.02 0.02 0.02
0.02 0.02 0.02 0.02 0.02 0.02 0.02 0.02 0.02 0.02 0.01 0.01 0.01 0.01 0.01 0.01 0.01 0.01 0.01 0.01 0.01 0.01 0.01 0.01 0.01 0.01 0.01 0.01 0.01 0.01 0.01 0.02 0.02 0.02 0.03 0.03 0.03 0.02 0.02 0.01 0.02 0.02 0.02
0.03 0.02 0.02 0.03 0.02 0.02 0.02 0.01 0.02 0.01 0.01 0.01 0.01 0.01 0.01 0.01 0.01 0.01 0.01 0.01 0.01 0.01 0.01 0.01 0.01 0.01 0.01 0.01 0.02 0.02 0.03 0.03 0.03 0.02 0.02 0.03 0.02 0.02 0.02 0.01 0.01 0.01 0.01
0.02 0.01 0.01 0.02 0.02 0.01 0.01 0.01 0.01 0.01 0.01 0.01 0.01 0.01 0.01 0.01 0.01 0.02 0.02 0.02 0.01 0.01 0.01 0.02 0.02 0.02 0.02 0.02 0.02 0.03 0.04 0.04 0.03 0.03 0.02 0.02 0.02 0.02 0.02 0.02 0.01 0.01 0.01
0.02 0.01 0.01 0.01 0.01 0.01 0.01 0.01 0.01 0.01 0.01 0.01 0.01 0.01 0.01 0.01 0.02 0.02 0.02 0.02 0.02 0.02 0.02 0.02 0.02 0.02 0.02 0.02 0.02 0.03 0.03 0.04 0.04 0.03 0.02 0.02 0.02 0.01 0.02 0.01 0.01 0.01 0.01
MSLP
1010.38 1010.44 1010.68 1011.09 1011.67 1012.38 1013.19 1014.05 1014.90 1015.68 1016.37 1016.95 1017.41 1017.77 1018.08 1018.35 1018.63 1018.93 1019.27 1019.65 1020.06 1020.49 1020.94 1021.39 1021.84 1022.26 1022.66 1023.01 1023.31 1023.56 1023.75 1023.88 1023.98 1024.05 1024.13 1024.23 1024.34 1024.48 1024.63 1024.76 1024.87 1024.93 1024.94
1010.08 1010.14 1010.37 1010.79 1011.39 1012.13 1012.99 1013.90 1014.81 1015.66 1016.42 1017.06 1017.58 1018.01 1018.36 1018.67 1018.97 1019.27 1019.60 1019.96 1020.34 1020.74 1021.15 1021.58 1022.00 1022.42 1022.82 1023.19 1023.52 1023.80 1024.03 1024.20 1024.33 1024.44 1024.54 1024.63 1024.75 1024.87 1024.99 1025.11 1025.19 1025.23 1025.23
1009.76 1009.83 1010.09 1010.54 1011.16 1011.95 1012.85 1013.81 1014.78 1015.69 1016.51 1017.22 1017.81 1018.30 1018.70 1019.06 1019.38 1019.70 1020.01 1020.34 1020.68 1021.03 1021.39 1021.77 1022.15 1022.54 1022.93 1023.31 1023.66 1023.98 1024.24 1024.46 1024.62 1024.75 1024.86 1024.95 1025.05 1025.15 1025.25 1025.34 1025.40 1025.43 1025.43
1009.40 1009.51 1009.82 1010.31 1010.99 1011.83 1012.77 1013.78 1014.79 1015.75 1016.63 1017.39 1018.05 1018.60 1019.07 1019.48 1019.84 1020.18 1020.50 1020.80 1021.10 1021.39 1021.69 1022.01 1022.34 1022.69 1023.06 1023.43 1023.80 1024.14 1024.43 1024.67 1024.86 1025.00 1025.11 1025.19 1025.27 1025.34 1025.41 1025.47 1025.52 1025.54 1025.54
1009.03 1009.19 1009.55 1010.10 1010.84 1011.73 1012.73 1013.78 1014.82 1015.82 1016.73 1017.54 1018.26 1018.88 1019.42 1019.89 1020.32 1020.69 1021.03 1021.33 1021.59 1021.84 1022.08 1022.33 1022.60 1022.91 1023.25 1023.61 1023.97 1024.32 1024.62 1024.88 1025.07 1025.21 1025.30 1025.36 1025.40 1025.45 1025.49 1025.53 1025.56 1025.58 1025.57
1008.64 1008.86 1009.28 1009.91 1010.71 1011.65 1012.68 1013.76 1014.83 1015.84 1016.78 1017.63 1018.39 1019.08 1019.70 1020.25 1020.75 1021.19 1021.56 1021.87 1022.13 1022.34 1022.53 1022.73 1022.95 1023.20 1023.50 1023.84 1024.18 1024.52 1024.82 1025.07 1025.26 1025.38 1025.44 1025.48 1025.49 1025.50 1025.52 1025.54 1025.56 1025.58 1025.58
1008.30 1008.56 1009.04 1009.72 1010.57 1011.56 1012.62 1013.71 1014.77 1015.79 1016.74 1017.61 1018.41 1019.16 1019.86 1020.50 1021.08 1021.60 1022.03 1022.38 1022.65 1022.85 1023.01 1023.16 1023.34 1023.55 1023.80 1024.10 1024.42 1024.73 1025.02 1025.25 1025.41 1025.51 1025.56 1025.56 1025.55 1025.54 1025.54 1025.55 1025.58 1025.60 1025.62
1008.04 1008.34 1008.86 1009.58 1010.46 1011.47 1012.53 1013.61 1014.66 1015.66 1016.59 1017.47 1018.30 1019.10 1019.87 1020.60 1021.27 1021.87 1022.38 1022.78 1023.07 1023.28 1023.44 1023.56 1023.70 1023.87 1024.09 1024.35 1024.63 1024.92 1025.18 1025.39 1025.53 1025.61 1025.64 1025.63 1025.61 1025.59 1025.59 1025.61 1025.64 1025.68 1025.72
1007.94 1008.25 1008.79 1009.52 1010.41 1011.41 1012.45 1013.50 1014.50 1015.46 1016.36 1017.22 1018.06 1018.90 1019.72 1020.52 1021.27 1021.95 1022.53 1022.99 1023.33 1023.56 1023.72 1023.84 1023.96 1024.10 1024.29 1024.52 1024.77 1025.03 1025.27 1025.46 1025.59 1025.66 1025.68 1025.68 1025.67 1025.67 1025.69 1025.73 1025.79 1025.84 1025.89
1008.05 1008.36 1008.88 1009.60 1010.47 1011.43 1012.42 1013.40 1014.34 1015.22 1016.07 1016.90 1017.73 1018.56 1019.42 1020.26 1021.08 1021.82 1022.46 1022.98 1023.36 1023.63 1023.81 1023.94 1024.06 1024.19 1024.36 1024.57 1024.81 1025.05 1025.27 1025.45 1025.58 1025.66 1025.70 1025.72 1025.74 1025.78 1025.83 1025.90 1025.99 1026.07 1026.13
1008.39 1008.67 1009.17 1009.85 1010.67 1011.56 1012.47 1013.36 1014.21 1015.01 1015.79 1016.55 1017.34 1018.16 1019.01 1019.87 1020.72 1021.50 1022.18 1022.74 1023.17 1023.48 1023.69 1023.85 1023.98 1024.13 1024.30 1024.51 1024.74 1024.97 1025.19 1025.37 1025.51 1025.61 1025.69 1025.75 1025.82 1025.90 1025.99 1026.11 1026.22 1026.32 1026.39
1008.93 1009.18 1009.64 1010.27 1011.01 1011.82 1012.64 1013.43 1014.17 1014.87 1015.55 1016.24 1016.97 1017.74 1018.56 1019.41 1020.25 1021.04 1021.74 1022.33 1022.80 1023.15 1023.40 1023.60 1023.77 1023.95 1024.15 1024.37 1024.60 1024.84 1025.06 1025.25 1025.41 1025.55 1025.66 1025.77 1025.89 1026.02 1026.16 1026.30 1026.44 1026.55 1026.62
1009.61 1009.84 1010.26 1010.82 1011.48 1012.19 1012.91 1013.59 1014.22 1014.82 1015.41 1016.01 1016.66 1017.37 1018.13 1018.94 1019.75 1020.52 1021.22 1021.82 1022.31 1022.71 1023.01 1023.27 1023.49 1023.72 1023.95 1024.20 1024.46 1024.71 1024.94 1025.15 1025.33 1025.49 1025.63 1025.78 1025.94 1026.11 1026.29 1026.46 1026.61 1026.71 1026.77
1010.35 1010.56 1010.94 1011.44 1012.03 1012.65 1013.26 1013.84 1014.37 1014.87 1015.37 1015.89 1016.46 1017.09 1017.79 1018.53 1019.28 1020.02 1020.70 1021.30 1021.81 1022.24 1022.60 1022.92 1023.21 1023.49 1023.78 1024.07 1024.35 1024.62 1024.87 1025.09 1025.28 1025.46 1025.63 1025.80 1025.99 1026.18 1026.37 1026.55 1026.70 1026.80 1026.84
1011.08 1011.28 1011.62 1012.07 1012.58 1013.12 1013.64 1014.14 1014.59 1015.01 1015.43 1015.87 1016.37 1016.93 1017.55 1018.22 1018.92 1019.60 1020.24 1020.83 1021.35 1021.82 1022.23 1022.61 1022.97 1023.32 1023.67 1024.00 1024.32 1024.61 1024.87 1025.10 1025.29 1025.47 1025.65 1025.83 1026.02 1026.22 1026.41 1026.58 1026.71 1026.79 1026.80
1011.73 1011.92 1012.23 1012.63 1013.08 1013.55 1014.01 1014.43 1014.82 1015.19 1015.56 1015.95 1016.39 1016.88 1017.44 1018.03 1018.66 1019.28 1019.88 1020.45 1020.97 1021.46 1021.92 1022.35 1022.78 1023.20 1023.60 1023.99 1024.34 1024.66 1024.93 1025.15 1025.35 1025.52 1025.69 1025.86 1026.04 1026.22 1026.39 1026.54 1026.65 1026.70 1026.70
1012.26 1012.44 1012.72 1013.08 1013.48 1013.90 1014.30 1014.68 1015.03 1015.36 1015.70 1016.06 1016.45 1016.90 1017.39 1017.93 1018.48 1019.04 1019.59 1020.13 1020.64 1021.14 1021.63 1022.12 1022.60 1023.08 1023.54 1023.97 1024.36 1024.70 1024.98 1025.22 1025.41 1025.57 1025.73 1025.88 1026.04 1026.19 1026.34 1026.46 1026.54 1026.56 1026.54
1012.69 1012.85 1013.09 1013.41 1013.76 1014.13 1014.49 1014.83 1015.16 1015.47 1015.79 1016.13 1016.51 1016.91 1017.36 1017.83 1018.32 1018.82 1019.32 1019.82 1020.31 1020.81 1021.31 1021.83 1022.36 1022.88 1023.39 1023.87 1024.29 1024.66 1024.97 1025.22 1025.42 1025.58 1025.73 1025.87 1026.01 1026.14 1026.25 1026.34 1026.39 1026.40 1026.36
1013.03 1013.16 1013.36 1013.62 1013.92 1014.23 1014.55 1014.87 1015.17 1015.48 1015.79 1016.12 1016.47 1016.86 1017.26 1017.68 1018.11 1018.55 1018.99 1019.44 1019.90 1020.38 1020.89 1021.42 1021.97 1022.53 1023.08 1023.60 1024.07 1024.47 1024.82 1025.10 1025.32 1025.50 1025.66 1025.80 1025.93 1026.04 1026.13 1026.20 1026.23 1026.22 1026.17
1013.34 1013.41 1013.55 1013.74 1013.98 1014.23 1014.50 1014.77 1015.05 1015.34 1015.64 1015.96 1016.30 1016.66 1017.03 1017.40 1017.78 1018.16 1018.55 1018.95 1019.37 1019.82 1020.31 1020.85 1021.41 1021.99 1022.57 1023.12 1023.64 1024.09 1024.48 1024.81 1025.08 1025.30 1025.49 1025.65 1025.78 1025.89 1025.98 1026.03 1026.05 1026.03 1025.97
1013.61 1013.62 1013.68 1013.80 1013.95 1014.13 1014.34 1014.56 1014.80 1015.06 1015.34 1015.64 1015.96 1016.29 1016.63 1016.96 1017.30 1017.63 1017.96 1018.32 1018.70 1019.12 1019.59 1020.11 1020.67 1021.27 1021.87 1022.46 1023.01 1023.52 1023.97 1024.37 1024.70 1024.98 1025.21 1025.41 1025.57 1025.69 1025.78 1025.83 1025.83 1025.81 1025.75
1013.86 1013.79 1013.77 1013.80 1013.86 1013.95 1014.08 1014.24 1014.42 1014.64 1014.89 1015.16 1015.45 1015.75 1016.06 1016.37 1016.67 1016.96 1017.26 1017.58 1017.93 1018.32 1018.77 1019.27 1019.83 1020.43 1021.04 1021.66 1022.25 1022.82 1023.33 1023.79 1024.20 1024.55 1024.85 1025.10 1025.29 1025.44 1025.54 1025.59 1025.59 1025.56 1025.50
1014.07 1013.92 1013.82 1013.75 1013.72 1013.72 1013.76 1013.83 1013.95 1014.11 1014.31 1014.55 1014.81 1015.09 1015.37 1015.66 1015.94 1016.21 1016.50 1016.80 1017.13 1017.51 1017.94 1018.43 1018.98 1019.57 1020.19 1020.83 1021.46 1022.07 1022.64 1023.17 1023.65 1024.07 1024.43 1024.74 1024.98 1025.15 1025.27 1025.32 1025.33 1025.29 1025.22
1014.21 1014.00 1013.82 1013.66 1013.53 1013.44 1013.39 1013.38 1013.43 1013.52 1013.67 1013.87 1014.10 1014.35 1014.62 1014.90 1015.18 1015.45 1015.74 1016.05 1016.39 1016.76 1017.19 1017.68 1018.22 1018.81 1019.43 1020.08 1020.73 1021.37 1021.99 1022.57 1023.11 1023.59 1024.01 1024.36 1024.64 1024.85 1024.98 1025.05 1025.05 1025.01 1024.94
1014.26 1014.00 1013.75 1013.53 1013.32 1013.15 1013.01 1012.93 1012.90 1012.93 1013.03 1013.18 1013.38 1013.62 1013.88 1014.16 1014.45 1014.75 1015.07 1015.40 1015.76 1016.16 1016.61 1017.10 1017.64 1018.23 1018.85 1019.49 1020.15 1020.80 1021.45 1022.06 1022.64 1023.16 1023.63 1024.02 1024.33 1024.56 1024.71 1024.78 1024.79 1024.75 1024.67
1014.22 1013.93 1013.64 1013.36 1013.09 1012.85 1012.65 1012.50 1012.41 1012.38 1012.43 1012.55 1012.72 1012.94 1013.21 1013.50 1013.82 1014.15 1014.51 1014.89 1015.29 1015.73 1016.20 1016.71 1017.26 1017.84 1018.46 1019.10 1019.75 1020.40 1021.05 1021.68 1022.27 1022.82 1023.31 1023.72 1024.06 1024.31 1024.47 1024.55 1024.56 1024.52 1024.44
Thickness
5630 5632 5633 5634 5636 5637 5638 5638 5639 5640 5640 5641 5642 5643 5644 5645 5645 5646 5647 5648 5649 5649 5650 5650 5650 5649 5648 5647 5647 5646 5645 5644 5643 5642 5641 5641 5640 5639 5638 5637 5636 5636 5635
5621 5624 5625 5626 5627 5629 5630 5630 5631 5631 5632 5633 5633 5635 5636 5637 5637 5638 5639 5640 5641 5642 5643 5643 5643 5643 5642 5641 5640 5639 5638 5638 5637 5636 5635 5634 5633 5632 5631 5630 5629 5628 5628
5612 5615 5617 5617 5619 5620 5621 5621 5622 5623 5624 5624 5625 5626 5627 5629 5630 5631 5632 5633 5634 5635 5635 5636 5636 5635 5635 5634 5633 5632 5632 5631 5630 5629 5628 5627 5626 5625 5624 5623 5622 5621 5620
5603 5607 5608 5609 5609 5611 5612 5612 5613 5613 5614 5615 5616 5617 5618 5620 5621 5623 5624 5625 5626 5626 5627 5627 5627 5627 5627 5627 5626 5625 5624 5623 5622 5621 5620 5619 5618 5617 5616 5615 5615 5613 5612
5595 5596 5598 5600 5600 5601 5602 5604 5603 5605 5605 5605 5607 5608 5609 5611 5613 5614 5615 5616 5617 5618 5619 5619 5619 5619 5619 5619 5618 5618 5617 5616 5615 5614 5613 5612 5611 5610 5609 5608 5607 5606 5605
5587 5587 5588 5590 5592 5593 5593 5594 5595 5595 5596 5597 5599 5599 5600 5602 5604 5605 5606 5607 5608 5610 5610 5610 5611 5610 5610 5610 5610 5610 5609 5609 5608 5607 5606 5605 5604 5602 5601 5600 5599 5598 5597
5578 5579 5580 5581 5583 5585 5585 5586 5587 5586 5587 5588 5589 5589 5591 5593 5595 5596 5598 5599 5600 5601 5601 5601 5602 5602 5601 5601 5602 5602 5602 5601 5600 5599 5598 5597 5595 5594 5593 5592 5591 5590 5589
5569 5571 5572 5572 5574 5575 5576 5577 5579 5578 5578 5580 5580 5580 5580 5582 5585 5588 5589 5590 5591 5591 5592 5592 5592 5593 5593 5593 5592 5592 5593 5592 5592 5591 5590 5588 5587 5586 5585 5584 5583 5582 5581
5560 5563 5564 5564 5565 5567 5568 5570 5571 5572 5570 5570 5572 5573 5573 5574 5575 5577 5579 5580 5581 5582 5583 5583 5583 5583 5583 5584 5583 5583 5583 5582 5582 5582 5581 5580 5579 5578 5577 5576 5575 5574 5572
5552 5554 5556 5557 5558 5559 5560 5562 5564 5564 5564 5563 5563 5565 5566 5567 5566 5567 5568 5569 5571 5572 5573 5574 5574 5574 5574 5574 5573 5573 5572 5572 5572 5571 5571 5570 5569 5569 5568 5567 5566 5564 5563
5544 5547 5548 5549 5551 5552 5553 5554 5555 5557 5557 5556 5556 5556 5556 5556 5557 5558 5559 5559 5560 5562 5563 5564 5564 5565 5564 5564 5563 5563 5562 5561 5561 5561 5561 5560 5560 5559 5558 5557 5555 5554 5553
5536 5538 5540 5542 5543 5544 5546 5547 5548 5549 5549 5549 5549 5550 5550 5549 5549 5548 5548 5548 5549 5551 5553 5554 5555 5555 5554 5554 5554 5553 5552 5551 5550 5550 5550 5549 5549 5548 5547 5546 5545 5544 5543
5528 5531 5533 5534 5536 5537 5539 5540 5540 5540 5541 5541 5541 5542 5542 5543 5542 5540 5539 5537 5538 5540 5542 5543 5545 5545 5544 5544 5543 5543 5542 5541 5540 5539 5538 5538 5537 5536 5535 5534 5533 5532 5531
5525 5526 5526 5527 5528 5530 5532 5532 5532 5532 5533 5533 5533 5533 5533 5533 5532 5532 5530 5527 5526 5528 5530 5533 5534 5534 5534 5533 5533 5531 5530 5530 5529 5528 5527 5526 5525 5524 5523 5523 5521 5520 5519
5518 5519 5520 5520 5521 5523 5524 5524 5524 5524 5524 5524 5524 5523 5523 5522 5522 5521 5520 5519 5518 5518 5521 5523 5522 5523 5522 5521 5521 5520 5519 5518 5517 5516 5515 5514 5513 5512 5511 5510 5509 5508 5507
5510 5511 5512 5513 5514 5515 5516 5516 5516 5515 5515 5515 5514 5514 5513 5512 5511 5510 5510 5509 5508 5509 5510 5513 5511 5511 5510 5510 5509 5508 5508 5506 5505 5504 5503 5502 5501 5500 5499 5498 5497 5495 5494
5503 5504 5505 5506 5506 5507 5507 5507 5507 5507 5506 5506 5505 5504 5504 5503 5502 5500 5499 5498 5498 5497 5498 5500 5499 5498 5498 5497 5497 5496 5495 5494 5493 5493 5491 5490 5489 5488 5487 5486 5484 5482 5481
5496 5496 5497 5497 5498 5498 5498 5498 5498 5497 5497 5496 5496 5495 5494 5493 5492 5490 5489 5488 5488 5487 5486 5488 5487 5485 5484 5484 5484 5484 5484 5483 5481 5480 5479 5478 5477 5475 5474 5473 5471 5469 5468
5489 5488 5489 5489 5489 5489 5489 5489 5489 5489 5488 5488 5487 5486 5485 5483 5482 5480 5479 5478 5477 5476 5475 5474 5475 5473 5472 5471 5471 5471 5471 5470 5468 5467 5466 5465 5464 5463 5461 5459 5458 5456 5454
5481 5480 5481 5480 5481 5481 5481 5480 5480 5479 5479 5478 5477 5476 5475 5474 5472 5470 5469 5468 5467 5465 5463 5462 5462 5461 5460 5458 5457 5457 5458 5457 5456 5455 5454 5452 5451 5449 5447 5446 5445 5443 5441
5474 5473 5472 5471 5471 5472 5472 5471 5470 5470 5468 5467 5467 5466 5465 5464 5463 5462 5460 5458 5457 5455 5453 5451 5450 5449 5449 5446 5446 5446 5445 5443 5443 5442 5441 5440 5438 5437 5434 5433 5431 5429 5428
5466 5465 5464 5464 5463 5464 5464 5463 5462 5460 5459 5458 5457 5456 5455 5454 5453 5453 5452 5450 5448 5446 5443 5441 5440 5439 5439 5437 5435 5433 5430 5429 5430 5431 5427 5427 5425 5423 5421 5419 5418 5416 5415
5460 5459 5458 5456 5456 5455 5456 5455 5454 5452 5451 5449 5448 5447 5446 5445 5443 5442 5441 5440 5439 5437 5436 5433 5432 5431 5428 5427 5424 5421 5419 5418 5418 5417 5413 5414 5411 5410 5408 5406 5405 5404 5402
5452 5451 5450 5449 5448 5447 5447 5447 5446 5444 5442 5441 5439 5438 5436 5435 5433 5432 5431 5431 5429 5428 5425 5424 5423 5421 5419 5416 5414 5412 5410 5407 5405 5403 5400 5399 5398 5396 5395 5393 5392 5391 5389
5444 5443 5442 5441 5440 5439 5439 5438 5437 5435 5433 5432 5431 5429 5427 5426 5425 5424 5422 5421 5420 5418 5416 5414 5412 5410 5409 5406 5403 5399 5396 5394 5394 5392 5388 5385 5385 5383 5382 5380 5379 5377 5376
5437 5436 5434 5433 5431 5430 5429 5429 5427 5425 5424 5423 5421 5420 5418 5417 5417 5415 5412 5411 5409 5408 5405 5403 5401 5399 5397 5395 5393 5390 5387 5383 5381 5380 5378 5373 5371 5368 5369 5368 5366 5364 5363